Stations météo

réclame
Mon MeteoGroup
Northolt, Grande-Bretagne (3672): Température de l'air & dewpoint: 17.08.2019 04:00:00 - 23.08.2019 04:00:00 (BST)Northolt, Grande-Bretagne (3672): Température de l'air -20cm & Température de l'air -100cm: 17.08.2019 04:00:00 - 23.08.2019 04:00:00 (BST)Northolt, Grande-Bretagne (3672): Vitesse du vent & gusts: 17.08.2019 04:00:00 - 23.08.2019 04:00:00 (BST)Northolt, Grande-Bretagne (3672): Direction du vent: 17.08.2019 04:00:00 - 23.08.2019 04:00:00 (BST)Northolt, Grande-Bretagne (3672): reduced air pressure: 17.08.2019 04:00:00 - 23.08.2019 04:00:00 (BST)Northolt, Grande-Bretagne (3672): visibility: 17.08.2019 04:00:00 - 23.08.2019 04:00:00 (BST)Northolt, Grande-Bretagne (3672): Quantités de précipitations: 17.08.2019 04:00:00 - 23.08.2019 04:00:00 (BST)
Date & Time tt [°C] td [°C] tt -20cm [°C] tt -100cm [°C] ff [km/h] ff [knt] fx [km/h] fx [knt] dd ppp [hPa] vv [km] rr [mm]
23.08.2019 04:00:00 - - - - - - - - - - - -
23.08.2019 03:00:00 14,5 13,0 - - 5 3 - - WNW 1025,4 23 0,0
23.08.2019 02:00:00 14,8 13,3 - - 4 2 - - SSW 1025,5 10 0,0
23.08.2019 01:00:00 15,3 13,2 - - 4 2 - - SW 1025,6 10 0,0
23.08.2019 00:00:00 16,4 13,5 - - 5 3 - - WSW 1025,5 10 0,0
22.08.2019 23:00:00 17,3 13,5 - - 8 4 - - WSW 1025,3 28 0,0
22.08.2019 22:00:00 18,2 13,7 - - 11 6 - - SSW 1024,9 29 0,0
22.08.2019 21:00:00 19,2 13,6 - - 9 5 - - SW 1024,8 10 0,0
22.08.2019 20:00:00 20,5 13,5 - - 11 6 - - WSW 1024,2 10 0,0
22.08.2019 19:00:00 22,0 12,9 - - 18 10 - - W 1023,8 10 0,0
22.08.2019 18:00:00 22,4 12,6 - - 18 10 - - W 1023,8 10 0,0
22.08.2019 17:00:00 23,3 12,9 - - 21 11 - - W 1023,9 10 0,0
22.08.2019 16:00:00 22,4 12,3 - - 22 12 - - W 1024,0 10 0,0
22.08.2019 15:00:00 22,4 12,5 - - 22 12 - - WSW 1024,3 10 0,0
22.08.2019 14:00:00 22,4 12,3 - - 18 10 - - WSW 1024,3 10 0,0
22.08.2019 13:00:00 22,3 12,0 - - 16 9 - - W 1024,7 10 0,0
22.08.2019 12:00:00 21,6 11,2 - - 21 11 - - WSW 1024,7 10 0,0
22.08.2019 11:00:00 19,5 10,8 - - 22 12 - - WSW 1024,9 10 0,0
22.08.2019 10:00:00 18,2 12,0 17,7 17,2 18 10 - - W 1025,1 10 0,0
22.08.2019 09:00:00 16,2 12,2 - - 18 10 - - WSW 1025,0 10 0,0
22.08.2019 08:00:00 14,0 12,1 - - 13 7 - - WSW 1025,0 10 0,0
22.08.2019 07:00:00 11,8 11,1 - - 9 5 - - SW 1024,8 10 0,0
22.08.2019 06:00:00 11,7 11,2 - - 5 3 - - S 1024,6 10 0,0
22.08.2019 05:00:00 11,4 10,8 - - 2 1 - - E 1024,5 10 0,0
22.08.2019 04:00:00 12,0 11,1 - - 5 3 - - SW 1024,6 13 0,0
22.08.2019 03:00:00 12,4 11,0 - - 4 2 - - SSW 1024,7 16 0,0
22.08.2019 02:00:00 12,9 10,9 - - 8 4 - - SW 1024,8 18 0,0
22.08.2019 01:00:00 13,3 10,6 - - 5 3 - - SSW 1024,8 20 0,0
22.08.2019 00:00:00 13,8 9,8 - - 9 5 - - SW 1025,3 10 0,0
21.08.2019 23:00:00 14,9 9,4 - - 8 4 - - SW 1025,6 25 0,0
21.08.2019 22:00:00 16,1 10,2 - - 11 6 - - SW 1025,4 10 0,0
21.08.2019 21:00:00 17,1 9,8 - - 13 7 - - SSW 1025,2 10 0,0
21.08.2019 20:00:00 18,5 10,4 - - 15 8 - - SW 1024,9 10 0,0
21.08.2019 19:00:00 19,9 10,9 - - 15 8 - - S 1024,7 10 0,0
21.08.2019 18:00:00 20,9 10,5 - - 18 10 - - SSW 1024,9 10 0,0
21.08.2019 17:00:00 21,8 9,6 - - 16 9 - - SSW 1025,2 10 0,0
21.08.2019 16:00:00 22,7 10,8 - - 18 10 - - WSW 1025,2 10 0,0
21.08.2019 15:00:00 22,6 11,3 - - 15 8 - - WSW 1026,0 10 0,0
21.08.2019 14:00:00 21,6 9,4 - - 16 9 - - SSW 1026,2 10 0,0
21.08.2019 13:00:00 20,7 10,5 - - 16 9 - - SSW 1026,6 10 0,0
21.08.2019 12:00:00 20,8 11,3 - - 13 7 - - SW 1027,2 10 0,0
21.08.2019 11:00:00 19,2 11,1 - - 15 8 - - WSW 1027,5 10 0,0
21.08.2019 10:00:00 17,4 12,3 17,7 17,2 5 3 - - S 1027,6 10 0,0
21.08.2019 09:00:00 15,6 11,8 - - 5 3 - - SW 1027,9 10 0,0
21.08.2019 08:00:00 12,8 10,6 - - 4 2 - - SW 1027,9 10 0,0
21.08.2019 07:00:00 10,1 9,0 - - 2 1 - - SSW 1027,6 10 0,0
21.08.2019 06:00:00 9,1 8,2 - - 2 1 - - S 1027,3 10 0,0
21.08.2019 05:00:00 9,1 7,9 - - 2 1 - - WSW 1027,2 10 0,0
21.08.2019 04:00:00 9,9 8,5 - - 0 0 - - N 1027,1 10 0,0
21.08.2019 03:00:00 11,2 9,1 - - 2 1 - - SSW 1027,0 26 0,0
21.08.2019 02:00:00 12,0 8,7 - - 2 1 - - SW 1026,8 10 0,0
21.08.2019 01:00:00 12,5 8,4 - - 5 3 - - W 1026,8 19 0,0
21.08.2019 00:00:00 13,3 8,3 - - 9 5 - - W 1026,8 19 0,0
20.08.2019 23:00:00 14,1 8,1 - - 9 5 - - W 1026,6 24 0,0
20.08.2019 22:00:00 15,1 7,8 - - 5 3 - - W 1026,3 25 0,0
20.08.2019 21:00:00 16,0 7,3 - - 5 3 - - W 1025,9 30 0,0
20.08.2019 20:00:00 17,7 6,8 - - 11 6 - - WNW 1025,3 10 0,0
20.08.2019 19:00:00 19,0 5,8 - - 16 9 - - W 1024,8 40 0,0
20.08.2019 18:00:00 19,2 5,8 - - 18 10 - - WNW 1024,2 10 0,0
20.08.2019 17:00:00 19,4 5,5 - - 21 11 - - WNW 1023,8 10 0,0
20.08.2019 16:00:00 20,4 6,7 - - 15 8 - - WNW 1023,5 40 0,0
20.08.2019 15:00:00 21,1 7,2 - - 21 11 - - W 1023,3 10 0,0
20.08.2019 14:00:00 19,4 6,3 - - 21 11 - - W 1023,0 10 0,0
20.08.2019 13:00:00 19,2 7,8 - - 21 11 - - WNW 1022,9 10 0,0
20.08.2019 12:00:00 18,8 7,5 - - 22 12 - - WNW 1022,8 10 0,0
20.08.2019 11:00:00 17,5 8,1 - - 16 9 - - W 1022,7 10 0,0
20.08.2019 10:00:00 16,2 9,8 17,9 17,2 16 9 - - WNW 1022,6 10 0,0
20.08.2019 09:00:00 14,4 10,4 - - 16 9 - - W 1022,0 10 0,0
20.08.2019 08:00:00 12,3 10,5 - - 8 4 - - WSW 1021,5 10 0,0
20.08.2019 07:00:00 11,2 9,7 - - 8 4 - - W 1020,9 10 0,0
20.08.2019 06:00:00 10,2 9,1 - - 5 3 - - SSW 1020,1 23 0,0
20.08.2019 05:00:00 10,8 9,4 - - 8 4 - - WSW 1019,8 25 0,0
20.08.2019 04:00:00 11,2 9,6 - - 4 2 - - WSW 1019,5 10 0,0
20.08.2019 03:00:00 12,0 9,8 - - 8 4 - - W 1019,2 10 0,0
20.08.2019 02:00:00 12,3 9,7 - - 8 4 - - WSW 1019,1 28 0,0
20.08.2019 01:00:00 12,6 9,6 - - 11 6 - - WSW 1019,3 10 0,0
20.08.2019 00:00:00 13,4 9,2 - - 11 6 - - WSW 1019,2 30 0,0
19.08.2019 23:00:00 14,2 8,8 - - 11 6 - - WSW 1018,6 10 0,0
19.08.2019 22:00:00 15,3 8,4 - - 18 10 - - W 1018,2 35 0,0
19.08.2019 21:00:00 16,3 7,4 - - 18 10 - - W 1017,5 45 0,0
19.08.2019 20:00:00 17,8 6,6 - - 18 10 - - W 1016,7 10 0,0
19.08.2019 19:00:00 19,3 8,3 - - 24 13 - - W 1016,0 10 0,0
19.08.2019 18:00:00 20,4 8,4 - - 29 16 - - W 1015,3 10 0,0
19.08.2019 17:00:00 20,7 9,3 - - 28 15 48 26 W 1015,0 10 0,0
19.08.2019 16:00:00 20,4 7,9 - - 28 15 48 26 W 1014,8 10 0,0
19.08.2019 15:00:00 21,1 10,6 - - 26 14 - - WSW 1014,3 10 0,0
19.08.2019 14:00:00 18,3 11,8 - - 22 12 - - WSW 1014,4 10 0,0
19.08.2019 13:00:00 18,9 14,5 - - 22 12 - - WSW 1013,8 10 0,4
19.08.2019 12:00:00 15,1 11,8 - - 28 15 - - W 1014,1 10 1,2
19.08.2019 11:00:00 17,2 11,9 - - 21 11 - - W 1013,6 10 0,0
19.08.2019 10:00:00 16,9 12,8 18,0 17,2 26 14 - - WSW 1013,1 10 0,0
19.08.2019 09:00:00 14,7 12,1 - - 18 10 - - WSW 1012,5 10 0,0
19.08.2019 08:00:00 14,2 11,9 - - 16 9 - - WSW 1012,3 10 0,0
19.08.2019 07:00:00 13,5 11,8 - - 13 7 - - SW 1011,9 10 0,0
19.08.2019 06:00:00 12,9 11,3 - - 8 4 - - SW 1011,4 20 0,0
19.08.2019 05:00:00 12,3 10,9 - - 11 6 - - WSW 1011,1 10 0,0
19.08.2019 04:00:00 12,1 10,7 - - 11 6 - - SW 1010,7 10 0,0
19.08.2019 03:00:00 12,4 10,9 - - 15 8 - - WSW 1010,5 24 0,0
19.08.2019 02:00:00 12,4 10,9 - - 11 6 - - SW 1010,3 10 0,0
19.08.2019 01:00:00 13,0 11,2 - - 15 8 - - WSW 1010,1 10 0,0
19.08.2019 00:00:00 13,4 11,9 - - 15 8 - - WSW 1009,8 10 0,0
18.08.2019 23:00:00 13,7 12,5 - - 13 7 - - SW 1009,3 24 0,0
18.08.2019 22:00:00 13,9 12,3 - - 13 7 - - WSW 1008,7 30 0,0
18.08.2019 21:00:00 14,4 12,8 - - 15 8 - - SW 1008,2 10 0,0
18.08.2019 20:00:00 15,0 13,8 - - 13 7 - - SW 1007,5 30 2,8
18.08.2019 19:00:00 18,6 10,9 - - 22 12 - - WSW 1006,7 10 0,0
18.08.2019 18:00:00 19,4 10,5 - - 28 15 - - WSW 1006,6 10 0,0
18.08.2019 17:00:00 21,0 8,9 - - 29 16 50 27 W 1006,1 10 0,0
18.08.2019 16:00:00 21,4 10,3 - - 26 14 50 27 W 1005,7 10 0,0
18.08.2019 15:00:00 21,1 10,5 - - 29 16 48 26 W 1005,2 10 0,0
18.08.2019 14:00:00 20,6 11,4 - - 24 13 - - WSW 1004,8 50 0,0
18.08.2019 13:00:00 19,0 12,4 - - 21 11 - - WSW 1004,6 40 0,0
18.08.2019 12:00:00 17,6 13,3 - - 18 10 - - W 1004,6 40 0,0
18.08.2019 11:00:00 14,7 13,6 - - 11 6 - - WSW 1004,4 10 1,2
18.08.2019 10:00:00 15,0 12,8 18,0 17,2 21 11 - - WSW 1004,3 10 0,4
18.08.2019 09:00:00 16,4 12,7 - - 11 6 - - SW 1003,2 10 0,0
18.08.2019 08:00:00 15,6 12,8 - - 9 5 - - WSW 1002,9 10 0,0
18.08.2019 07:00:00 14,7 12,9 - - 8 4 - - SW 1002,8 10 0,0
18.08.2019 06:00:00 14,1 12,2 - - 11 6 - - SW 1002,8 10 0,0
18.08.2019 05:00:00 14,9 12,6 - - 11 6 - - SW 1003,3 10 0,0
18.08.2019 04:00:00 14,9 12,4 - - 11 6 - - SW 1003,6 24 0,0
18.08.2019 03:00:00 15,1 12,3 - - 8 4 - - SSW 1004,0 24 0,0
18.08.2019 02:00:00 15,4 12,5 - - 9 5 - - SW 1004,5 10 0,0
18.08.2019 01:00:00 15,6 12,8 - - 9 5 - - SW 1005,0 21 0,0
18.08.2019 00:00:00 15,9 12,8 - - 9 5 - - SW 1004,7 10 0,0
17.08.2019 23:00:00 16,4 12,4 - - 16 9 - - WSW 1005,3 10 0,0
17.08.2019 22:00:00 17,1 12,6 - - 16 9 - - SW 1005,5 10 0,0
17.08.2019 21:00:00 17,6 12,9 - - 21 11 - - SW 1004,9 26 0,0
17.08.2019 20:00:00 18,7 12,9 - - 22 12 - - SW 1004,6 10 0,0
17.08.2019 19:00:00 20,1 13,3 - - 22 12 - - SW 1004,6 10 0,0
17.08.2019 18:00:00 21,7 10,9 - - 18 10 - - W 1004,5 10 0,0
17.08.2019 17:00:00 21,6 11,2 - - 21 11 - - W 1004,5 10 0,0
17.08.2019 16:00:00 21,7 10,8 - - 22 12 - - W 1004,8 10 0,0
17.08.2019 15:00:00 21,7 11,3 - - 29 16 - - W 1004,8 10 0,0
17.08.2019 14:00:00 20,4 11,8 - - 28 15 - - W 1004,8 10 0,0
17.08.2019 13:00:00 20,9 13,3 - - 24 13 - - WSW 1004,8 40 0,0
17.08.2019 12:00:00 18,3 13,1 - - 22 12 - - W 1005,0 10 0,0
17.08.2019 11:00:00 18,7 13,3 - - 26 14 - - WSW 1005,0 10 0,0
17.08.2019 10:00:00 18,3 13,7 17,7 17,4 21 11 - - WSW 1004,6 10 0,0
17.08.2019 09:00:00 16,9 14,0 - - 21 11 - - WSW 1004,7 10 0,0
17.08.2019 08:00:00 15,6 13,7 - - 15 8 - - WSW 1004,6 10 0,0
17.08.2019 07:00:00 14,8 13,9 - - 11 6 - - WSW 1004,1 25 0,0
17.08.2019 06:00:00 15,3 14,4 - - 11 6 - - WSW 1003,8 23 0,0
17.08.2019 05:00:00 16,2 15,4 - - 16 9 46 25 W 1003,6 30 1,2
17.08.2019 04:00:00 17,3 16,6 - - 15 8 - - SW 1002,9 30 0,0

tt = Température de l'air
td = dewpoint
tt -20cm = Température de l'air -20cm
tt -100cm = Température de l'air -100cm
ff = Vitesse du vent
fx = gusts
dd = Direction du vent
ppp = reduced air pressure
vv = visibility
rr = Quantités de précipitations

stations d'obs. à proximité